Vorticity
17 16 13 11 12 13 14 14 11 8 6 4 4 6 10 17 26 30 30 26 21 17 14 12 9 8 7 8 8 6 4 3 4 5 5 7 7 7 6 5 4 3 3 3 5 6 7 8 7 7 7 8 2 -3 -4 -1 6 10 12 13 13 11 10 8 6 5 5 5 4
16 15 14 12 12 13 13 13 11 8 6 5 4 5 9 16 25 30 31 27 22 18 15 12 10 8 8 8 8 7 5 4 4 4 4 6 6 6 5 4 3 3 3 4 6 7 7 8 8 7 6 6 2 -3 -6 -3 6 11 12 11 10 9 8 6 5 4 4 4 4
16 15 14 12 12 13 13 12 10 8 6 5 4 5 8 14 23 30 32 28 23 18 15 12 10 8 8 7 7 7 7 6 5 4 4 6 6 5 4 4 3 3 4 4 6 7 6 6 6 5 4 5 2 -5 -8 -1 8 11 11 10 8 7 6 5 4 4 4 5 5
16 15 13 12 13 13 13 12 10 8 6 5 4 5 7 13 22 29 32 30 24 19 15 11 9 9 9 8 7 7 7 7 6 5 5 7 6 5 4 4 3 3 4 5 7 7 5 2 1 2 3 6 1 -5 -6 4 10 12 11 9 8 6 5 3 3 4 5 5 5
16 14 13 13 13 13 12 11 10 8 6 5 4 5 7 12 21 29 33 32 25 19 14 10 9 9 8 7 6 6 6 7 6 5 6 7 7 6 5 4 4 4 4 5 8 8 6 2 1 5 10 10 1 -2 1 10 11 11 10 9 8 6 4 3 4 5 6 7 7
16 14 13 13 13 12 12 11 9 8 7 6 5 5 7 11 20 29 34 33 26 20 15 11 9 9 8 7 6 5 5 6 5 5 6 8 7 6 5 5 4 4 4 5 9 9 7 3 8 18 25 18 5 3 7 11 11 10 9 9 7 6 5 5 6 7 8 8 7
16 14 13 12 12 12 11 10 9 8 7 7 6 5 7 10 20 29 34 34 27 20 15 11 10 9 8 7 6 5 5 5 4 5 7 8 7 6 5 4 3 3 3 7 10 11 8 4 17 29 32 17 7 5 7 7 8 8 7 6 5 4 5 5 7 8 8 7 5
15 13 12 12 12 11 10 9 8 8 8 8 7 6 6 10 20 30 35 35 27 20 15 11 10 9 8 8 6 5 5 5 4 5 6 8 7 7 7 5 3 2 3 6 4 3 4 8 23 28 23 6 4 5 6 5 5 5 5 4 3 4 5 6 7 7 6 3 2
13 12 12 13 13 12 10 8 8 8 9 9 7 6 7 11 21 31 37 35 27 20 14 11 10 10 9 8 7 6 5 4 3 4 7 8 7 7 7 6 3 2 2 4 3 3 5 13 24 20 8 -3 3 5 6 5 4 3 3 3 3 4 6 7 7 5 3 1 1
13 12 13 14 14 12 10 9 9 10 10 8 6 6 7 12 23 33 38 35 26 18 13 10 10 10 9 7 6 5 5 3 3 5 7 7 7 7 7 7 3 1 1 2 -0 -1 4 19 23 11 -3 -6 0 4 4 4 3 3 2 3 3 4 5 7 6 4 2 2 5
13 13 14 15 14 12 11 10 11 11 10 8 6 6 8 14 26 35 39 34 24 16 11 10 10 10 8 6 5 5 5 3 4 5 6 7 6 7 7 6 2 0 -0 2 -1 -2 3 20 19 4 -9 -6 -1 1 2 2 2 2 2 3 3 4 5 5 4 4 3 5 7
15 15 16 16 14 13 11 11 11 10 9 7 6 6 10 17 29 37 39 32 22 15 11 10 11 10 8 6 5 4 4 3 4 5 6 6 6 6 6 4 1 -1 -0 3 1 -3 -0 17 12 -2 -12 -5 -1 1 1 2 2 2 3 3 4 5 5 4 3 3 4 6 9
17 17 17 16 14 12 12 12 11 9 8 6 6 8 13 22 33 38 37 28 19 14 10 9 10 9 8 6 5 4 4 3 4 5 5 6 6 6 5 2 -1 -2 0 5 2 -2 -1 10 4 -7 -13 -6 -1 1 2 2 3 3 3 3 4 5 5 4 3 3 4 7 10
19 17 16 13 12 11 11 11 10 9 7 6 7 10 16 26 36 38 33 24 17 13 10 9 9 8 7 6 6 4 3 3 3 4 5 6 6 5 4 1 -2 -1 1 2 0 -0 1 5 -3 -9 -10 -4 -1 1 2 3 3 4 4 4 4 4 4 3 2 2 4 8 10
18 16 13 11 10 10 10 10 9 8 7 7 9 14 21 31 38 36 30 21 15 12 11 10 9 8 7 6 5 4 3 3 2 3 5 7 6 4 3 1 -1 1 1 -2 -3 1 4 4 -3 -6 -5 -1 -0 1 2 3 3 4 4 4 4 4 3 2 1 3 6 9 9
16 14 12 11 10 10 10 9 8 8 8 9 12 18 26 35 38 33 26 17 14 12 11 11 9 7 6 6 4 2 2 2 0 2 5 6 5 4 3 2 2 2 0 -4 -3 2 6 4 -0 -1 -1 0 1 2 3 3 3 3 3 4 4 3 2 0 1 3 6 8 8
14 12 11 11 10 10 9 8 8 9 10 11 16 23 31 38 36 30 21 14 12 11 11 11 9 7 6 5 3 3 2 1 0 2 5 6 4 4 3 3 4 3 1 -4 -2 2 5 3 1 0 0 1 2 3 3 3 2 3 3 3 3 2 1 -0 1 4 5 6 7
12 11 11 10 10 9 9 8 9 10 11 14 21 28 34 37 32 25 17 11 10 10 11 10 8 7 6 4 4 4 3 -0 0 3 5 5 4 4 3 4 4 3 2 -2 -1 1 3 1 1 1 1 3 3 3 2 1 2 2 3 3 3 2 0 -1 2 4 5 6 9
11 11 10 10 10 9 9 9 9 11 14 19 26 31 33 33 27 21 15 11 9 9 10 9 7 6 5 4 4 3 2 -1 1 4 5 5 4 3 3 3 4 3 2 -0 0 1 1 1 1 1 3 4 4 3 1 0 1 3 4 4 3 1 -0 -1 1 4 7 10 12
11 10 10 9 9 9 9 9 11 14 18 24 30 31 30 27 22 19 15 12 11 10 9 8 6 5 4 4 4 2 -0 -0 3 5 5 5 4 3 3 3 3 3 2 2 2 1 1 1 1 2 4 5 5 3 2 1 3 4 5 5 3 0 -1 -1 2 6 10 15 14
9 9 9 9 9 9 10 11 14 18 23 28 30 29 26 22 19 17 15 14 12 10 9 7 5 4 3 4 2 -1 -2 1 4 5 5 4 3 3 2 2 2 2 2 2 2 2 2 2 2 3 4 4 4 3 3 3 4 4 4 4 1 -2 -3 -1 3 9 15 18 14
10 9 8 9 10 10 12 14 18 22 26 29 28 25 22 20 18 17 15 14 13 10 7 4 4 3 4 4 -1 -2 0 4 5 5 4 3 3 3 2 2 3 2 2 1 2 3 4 3 3 3 3 2 2 3 3 3 3 2 2 1 -2 -4 -3 0 7 13 18 18 12
11 9 7 10 11 13 15 18 21 24 26 26 24 22 21 19 18 16 14 13 12 8 4 2 3 4 3 -1 -3 -1 3 4 4 3 3 3 3 3 2 2 3 2 2 2 3 4 4 4 3 2 1 1 2 2 3 3 2 1 1 -1 -4 -4 -1 4 12 18 21 17 12
9 9 10 13 14 16 18 20 22 24 24 22 21 21 20 19 16 14 12 11 9 6 3 2 3 3 1 -4 -1 2 4 4 2 2 3 3 3 3 2 3 3 3 2 2 3 4 4 3 2 1 1 1 2 3 4 4 4 5 4 2 0 1 5 12 21 23 21 15 11
9 11 14 16 18 19 19 17 20 23 24 21 22 21 20 16 14 12 10 8 6 5 4 3 3 1 -2 -4 2 5 4 2 1 2 3 4 3 3 2 2 2 2 2 3 3 4 3 3 1 1 1 2 3 4 6 8 11 12 11 7 4 7 14 24 26 22 16 11 10
12 15 17 19 20 19 18 15 17 21 23 22 23 21 17 13 13 11 8 5 5 4 3 3 2 0 -2 -2 3 5 4 1 2 2 2 3 3 2 1 1 1 1 2 3 4 4 4 3 2 1 2 3 4 6 8 12 14 13 9 5 9 16 23 24 19 14 10 9 10
16 18 20 20 19 18 16 14 16 19 22 24 22 19 15 12 12 11 9 6 5 4 3 1 0 -1 -2 -0 3 3 2 4 6 3 1 2 2 1 1 2 3 2 1 3 5 5 4 3 1 1 2 3 4 6 8 10 10 9 8 11 17 20 19 14 10 8 9 10 10
20 20 21 20 17 15 14 14 17 20 23 24 21 17 13 10 10 9 8 6 4 2 1 -0 -1 -2 -2 -0 3 2 2 7 7 3 1 1 1 1 2 6 5 2 -0 1 3 4 3 1 -0 -0 1 2 3 4 5 4 4 5 8 14 18 17 13 9 9 10 10 11 9
22 21 20 17 15 14 14 16 20 23 24 23 19 14 10 7 7 7 6 4 2 1 1 0 -1 -1 -1 0 3 5 6 8 5 3 1 1 1 1 3 7 6 3 -2 -4 -3 -2 -2 -2 -2 -1 -0 1 0 0 -0 -0 0 2 6 13 15 14 12 11 11 11 11 10 8
22 20 18 15 14 15 17 20 23 24 23 19 14 10 8 7 7 6 5 3 2 0 -0 -0 -1 -1 -1 1 5 7 7 6 4 2 2 2 1 1 3 7 10 8 2 -4 -7 -7 -6 -4 -3 -2 -1 -2 -3 -3 -3 -2 -0 5 11 16 16 15 13 12 12 11 9 7 6
20 18 17 15 16 18 20 23 24 23 20 15 10 8 7 6 5 4 3 3 2 0 -1 -1 -1 -2 -2 2 6 8 7 5 3 2 2 1 0 0 3 8 13 13 9 2 -4 -7 -7 -4 -2 -1 -1 -2 -3 -5 -4 1 8 13 16 16 15 14 13 12 10 9 7 6 6
20 18 17 17 18 20 21 21 18 16 14 12 9 7 6 5 4 4 3 2 0 -0 -0 0 0 -1 -2 3 7 7 6 4 3 2 1 -1 -2 -1 2 7 11 12 11 6 0 -3 -4 -2 1 3 3 3 2 4 7 13 16 17 16 15 14 13 11 10 8 7 6 6 5
20 18 17 17 18 19 18 15 11 10 9 9 7 6 5 4 3 2 -0 -3 -1 1 3 5 3 2 1 4 6 6 5 3 2 1 -1 -4 -3 -0 4 8 9 9 7 4 1 -0 0 4 7 8 8 8 12 16 19 19 17 15 14 13 12 11 9 7 6 6 5 4 4
20 18 17 16 16 15 14 13 11 9 7 6 6 6 4 1 -4 -6 -7 -5 4 7 7 9 8 6 5 5 5 5 3 2 1 -2 -5 -7 -3 3 8 12 10 8 5 3 2 3 5 9 11 13 14 16 19 19 18 16 14 13 13 12 10 8 6 5 5 4 4 3 3
20 19 17 15 13 12 11 11 10 8 7 7 6 2 -5 -15 -16 -12 -4 4 13 13 11 10 7 6 5 5 5 4 3 2 0 -3 -6 -7 -4 1 8 17 19 16 13 10 10 11 12 12 14 16 19 20 18 16 14 14 14 13 11 9 7 5 5 4 4 3 3 3 3
21 20 18 15 12 11 10 11 10 9 8 7 0 -11 -22 -27 -16 -2 9 16 17 14 11 9 6 4 3 5 5 5 4 3 0 -2 -5 -7 -7 -2 8 23 27 25 21 19 20 20 20 19 19 19 18 16 15 14 14 14 13 11 8 6 5 4 4 3 3 3 3 4 4
21 20 18 16 12 11 10 10 9 8 6 2 -10 -20 -23 -14 -1 8 14 17 16 13 9 7 5 4 3 4 5 5 4 2 1 2 4 6 7 13 21 29 26 22 19 19 21 21 21 19 17 16 15 14 14 14 13 12 9 7 6 5 4 4 4 3 3 4 4 5 5
20 18 16 13 11 9 9 8 7 5 2 -5 -11 -13 -8 1 6 10 12 12 10 8 6 5 5 4 4 5 4 2 -2 -6 -1 10 23 33 34 33 30 25 19 16 16 17 18 18 18 16 15 15 14 14 13 12 10 8 6 5 5 4 4 4 4 4 4 4 5 5 6
18 15 12 10 9 7 6 3 1 0 -0 -2 -4 -4 -2 0 3 5 7 6 4 3 3 3 4 5 4 3 -0 -7 -13 -18 -9 9 27 39 36 30 23 16 14 13 13 14 14 14 15 15 14 13 12 11 9 8 6 5 4 4 4 4 4 4 4 4 5 5 6 7 9
16 13 10 8 7 4 0 -4 -3 1 5 5 2 -0 -2 -2 0 2 4 3 2 1 2 3 4 5 4 -0 -9 -16 -20 -20 -13 0 15 25 20 15 11 9 9 8 9 9 11 12 12 12 11 10 8 7 6 5 5 4 4 4 4 4 4 4 5 6 6 7 8 10 11
12 10 9 7 4 -0 -4 -5 0 6 10 9 5 2 -1 -2 -1 1 3 4 3 2 2 4 6 5 1 -6 -15 -19 -18 -13 -11 -4 5 15 12 8 6 7 7 8 9 10 10 10 10 9 7 6 6 5 5 4 4 4 4 4 4 4 5 5 6 7 8 10 10 11 11
Height
5514 5521 5528 5536 5543 5550 5556 5562 5568 5574 5579 5583 5587 5591 5595 5599 5603 5607 5611 5615 5621 5627 5633 5641 5647 5653 5659 5664 5670 5677 5683 5688 5693 5697 5701 5705 5708 5711 5714 5717 5719 5721 5723 5725 5727 5729 5731 5733 5737 5738 5740 5741 5741 5742 5744 5745 5746 5747 5747 5748 5749 5750 5752 5753 5754 5754 5755 5755 5756
5511 5518 5526 5533 5541 5547 5554 5561 5567 5572 5577 5581 5585 5589 5593 5597 5602 5605 5609 5614 5619 5625 5632 5639 5646 5652 5658 5663 5670 5676 5682 5687 5692 5696 5700 5704 5707 5710 5712 5715 5717 5720 5722 5724 5726 5727 5730 5732 5734 5736 5738 5739 5740 5742 5743 5744 5745 5746 5747 5747 5748 5749 5750 5752 5752 5753 5753 5754 5755
5508 5516 5524 5532 5539 5546 5552 5559 5565 5571 5575 5580 5584 5588 5592 5597 5600 5604 5609 5614 5619 5625 5632 5639 5645 5651 5657 5663 5670 5676 5681 5686 5691 5695 5699 5703 5706 5708 5711 5714 5716 5718 5721 5722 5724 5727 5729 5731 5732 5734 5736 5738 5739 5741 5742 5743 5744 5745 5746 5746 5747 5748 5749 5750 5751 5751 5752 5753 5753
5507 5515 5523 5531 5538 5545 5552 5558 5564 5569 5574 5578 5583 5587 5592 5596 5600 5604 5608 5613 5619 5625 5631 5638 5645 5651 5657 5663 5669 5675 5680 5685 5689 5694 5698 5702 5704 5707 5710 5712 5715 5717 5719 5722 5723 5726 5728 5729 5730 5732 5734 5737 5738 5739 5741 5742 5743 5744 5744 5745 5746 5747 5748 5748 5749 5750 5751 5752 5752
5506 5514 5522 5530 5537 5544 5551 5557 5563 5568 5573 5578 5582 5587 5591 5596 5600 5604 5609 5614 5619 5625 5631 5638 5645 5651 5657 5663 5669 5674 5679 5684 5688 5693 5697 5700 5702 5706 5709 5711 5714 5716 5719 5721 5723 5725 5727 5728 5729 5731 5733 5736 5737 5738 5740 5742 5742 5742 5743 5744 5745 5746 5747 5747 5748 5749 5749 5750 5751
5506 5514 5522 5530 5537 5543 5550 5556 5562 5567 5572 5577 5582 5587 5591 5595 5600 5604 5608 5614 5619 5625 5632 5638 5645 5651 5657 5662 5668 5673 5678 5683 5687 5692 5695 5699 5702 5705 5708 5711 5713 5716 5718 5721 5722 5724 5726 5727 5728 5730 5732 5734 5736 5738 5739 5740 5741 5741 5742 5743 5743 5744 5745 5746 5747 5747 5748 5749 5749
5506 5514 5522 5530 5536 5543 5549 5556 5562 5567 5572 5577 5582 5587 5591 5595 5600 5604 5609 5614 5620 5626 5632 5638 5645 5651 5657 5662 5668 5673 5678 5682 5687 5691 5695 5699 5702 5705 5707 5710 5712 5715 5718 5720 5722 5723 5725 5727 5728 5730 5731 5733 5735 5737 5738 5739 5739 5740 5741 5742 5742 5743 5744 5745 5746 5747 5747 5747 5747
5507 5515 5522 5529 5536 5543 5549 5556 5562 5567 5572 5577 5582 5587 5591 5595 5600 5605 5610 5615 5621 5626 5632 5638 5645 5652 5657 5662 5667 5672 5677 5682 5686 5690 5694 5698 5702 5704 5707 5709 5712 5715 5717 5719 5721 5723 5725 5727 5728 5729 5731 5732 5734 5735 5737 5737 5737 5738 5740 5741 5742 5742 5743 5744 5745 5745 5746 5746 5745
5509 5516 5523 5530 5537 5543 5550 5556 5562 5567 5573 5578 5582 5587 5592 5596 5601 5606 5611 5615 5621 5627 5632 5639 5645 5652 5657 5662 5667 5672 5677 5681 5686 5690 5694 5697 5700 5703 5706 5709 5712 5714 5717 5719 5721 5722 5724 5727 5727 5728 5729 5731 5732 5734 5735 5735 5736 5737 5738 5739 5741 5742 5742 5743 5743 5744 5744 5744 5744
5511 5517 5524 5531 5538 5545 5551 5557 5563 5569 5574 5578 5583 5588 5592 5597 5602 5607 5611 5616 5622 5627 5633 5639 5646 5652 5657 5662 5667 5672 5676 5681 5685 5689 5692 5696 5698 5702 5705 5707 5711 5714 5716 5718 5719 5721 5723 5725 5726 5727 5728 5729 5731 5732 5733 5734 5735 5736 5737 5739 5740 5741 5741 5742 5742 5742 5742 5742 5743
5512 5519 5526 5532 5539 5546 5553 5559 5564 5569 5574 5579 5584 5589 5594 5599 5603 5607 5612 5617 5623 5628 5634 5640 5646 5652 5657 5662 5666 5671 5675 5679 5684 5688 5692 5695 5698 5701 5704 5707 5710 5713 5715 5717 5719 5721 5723 5724 5725 5725 5727 5728 5730 5731 5732 5733 5734 5736 5737 5738 5739 5739 5740 5740 5740 5741 5741 5741 5742
5515 5522 5528 5535 5542 5548 5555 5561 5566 5570 5575 5580 5585 5590 5595 5599 5604 5608 5613 5618 5624 5629 5635 5641 5647 5652 5657 5662 5666 5670 5675 5679 5683 5687 5691 5694 5697 5700 5703 5706 5709 5712 5715 5717 5719 5721 5722 5723 5724 5724 5726 5727 5729 5730 5731 5732 5734 5735 5736 5737 5738 5738 5738 5739 5739 5739 5740 5740 5741
5517 5524 5530 5537 5543 5550 5557 5562 5567 5572 5577 5582 5587 5592 5596 5601 5605 5609 5614 5619 5624 5630 5636 5642 5647 5652 5657 5662 5666 5670 5675 5679 5683 5687 5691 5694 5697 5700 5703 5706 5709 5712 5714 5717 5719 5721 5722 5722 5723 5724 5726 5727 5728 5729 5730 5732 5733 5734 5735 5736 5737 5737 5737 5737 5738 5738 5739 5739 5739
5520 5526 5532 5539 5546 5552 5558 5564 5569 5574 5579 5583 5588 5593 5598 5602 5606 5610 5615 5620 5625 5630 5636 5641 5647 5652 5657 5662 5666 5671 5675 5680 5684 5687 5691 5694 5697 5700 5703 5706 5709 5711 5714 5717 5720 5722 5723 5723 5724 5725 5726 5726 5727 5729 5730 5731 5732 5733 5734 5735 5736 5736 5736 5736 5737 5737 5738 5738 5738
5524 5530 5536 5542 5549 5555 5561 5566 5571 5576 5581 5586 5590 5595 5599 5603 5607 5611 5616 5621 5626 5631 5636 5642 5647 5652 5657 5662 5666 5671 5676 5680 5684 5688 5691 5695 5697 5701 5703 5706 5709 5712 5714 5717 5720 5722 5723 5723 5724 5725 5725 5726 5727 5728 5729 5731 5732 5732 5733 5734 5734 5735 5735 5735 5736 5736 5737 5737 5737
5529 5535 5541 5547 5552 5557 5563 5569 5574 5578 5583 5587 5592 5596 5600 5604 5608 5612 5617 5621 5627 5632 5637 5642 5647 5652 5657 5662 5667 5672 5676 5680 5684 5688 5692 5695 5698 5701 5703 5706 5709 5712 5714 5717 5720 5721 5722 5722 5723 5723 5724 5725 5727 5728 5729 5730 5731 5732 5732 5733 5733 5733 5734 5734 5735 5735 5735 5735 5735
5534 5539 5545 5550 5555 5560 5566 5571 5576 5581 5585 5589 5593 5597 5601 5605 5609 5613 5618 5623 5628 5633 5638 5644 5649 5654 5659 5663 5667 5672 5677 5681 5685 5689 5692 5696 5698 5701 5703 5706 5709 5712 5714 5716 5718 5720 5721 5721 5722 5723 5724 5725 5726 5727 5728 5729 5730 5731 5731 5732 5732 5732 5732 5733 5733 5733 5733 5733 5732
5538 5544 5549 5553 5558 5564 5569 5574 5579 5583 5587 5591 5595 5598 5602 5606 5611 5615 5620 5625 5630 5635 5640 5645 5650 5655 5660 5665 5669 5673 5677 5682 5686 5689 5692 5695 5698 5701 5703 5706 5708 5711 5713 5715 5717 5719 5720 5721 5722 5723 5724 5725 5726 5726 5727 5728 5729 5730 5730 5730 5731 5731 5731 5732 5731 5731 5731 5731 5731
5543 5548 5552 5557 5562 5567 5572 5577 5581 5585 5589 5592 5596 5600 5603 5607 5612 5617 5622 5627 5631 5636 5641 5647 5652 5656 5661 5666 5670 5674 5679 5683 5687 5690 5692 5695 5697 5700 5703 5705 5708 5710 5712 5714 5716 5717 5718 5720 5721 5722 5723 5724 5724 5725 5726 5727 5728 5728 5729 5729 5730 5730 5730 5730 5730 5730 5730 5730 5730
5547 5551 5556 5560 5565 5570 5574 5579 5583 5586 5590 5594 5597 5601 5605 5609 5613 5618 5623 5627 5632 5637 5643 5648 5653 5657 5662 5666 5670 5675 5680 5683 5687 5689 5692 5694 5697 5700 5702 5705 5707 5709 5711 5712 5714 5716 5717 5719 5720 5721 5722 5723 5723 5725 5726 5727 5727 5727 5728 5728 5728 5728 5728 5728 5728 5729 5729 5729 5729
5550 5554 5559 5563 5568 5572 5577 5581 5584 5588 5591 5595 5599 5602 5606 5610 5615 5619 5624 5629 5634 5639 5644 5649 5654 5658 5662 5667 5671 5676 5680 5682 5686 5689 5692 5694 5697 5700 5702 5705 5707 5708 5710 5712 5714 5715 5717 5718 5719 5720 5721 5722 5723 5724 5725 5726 5726 5726 5727 5727 5727 5727 5727 5727 5727 5728 5728 5728 5728
5553 5557 5562 5566 5570 5574 5578 5582 5586 5589 5593 5597 5600 5604 5608 5612 5617 5622 5626 5631 5636 5641 5646 5651 5655 5659 5663 5667 5672 5676 5679 5682 5686 5689 5692 5694 5697 5700 5702 5704 5706 5708 5710 5712 5713 5714 5715 5717 5718 5719 5720 5721 5722 5723 5724 5724 5725 5725 5725 5725 5725 5726 5726 5727 5727 5727 5727 5727 5727
5557 5561 5565 5569 5572 5576 5580 5583 5587 5590 5594 5598 5602 5607 5611 5615 5619 5623 5628 5633 5638 5642 5647 5651 5655 5659 5663 5667 5672 5676 5679 5683 5686 5689 5692 5694 5697 5699 5701 5703 5705 5707 5709 5711 5712 5713 5714 5716 5717 5718 5719 5720 5721 5722 5723 5723 5723 5723 5724 5724 5725 5725 5725 5725 5725 5725 5725 5725 5726
5560 5563 5567 5571 5574 5577 5581 5585 5589 5593 5597 5601 5605 5609 5613 5617 5622 5626 5630 5635 5640 5644 5648 5652 5656 5659 5663 5668 5673 5677 5680 5683 5686 5689 5692 5694 5696 5698 5700 5702 5704 5707 5708 5710 5711 5712 5713 5714 5716 5717 5718 5719 5720 5721 5722 5722 5722 5722 5723 5724 5724 5724 5724 5723 5723 5723 5723 5724 5725
5563 5567 5570 5573 5576 5579 5583 5587 5592 5596 5599 5603 5607 5612 5616 5620 5624 5628 5632 5637 5641 5646 5649 5653 5657 5661 5665 5669 5673 5677 5680 5683 5686 5689 5691 5693 5695 5698 5700 5702 5704 5706 5707 5708 5709 5710 5712 5713 5715 5716 5717 5718 5719 5720 5720 5720 5721 5722 5722 5723 5724 5723 5722 5721 5721 5722 5722 5723 5723
5566 5569 5572 5575 5578 5582 5586 5590 5594 5598 5602 5606 5610 5614 5618 5622 5626 5631 5635 5639 5643 5647 5651 5654 5658 5662 5666 5670 5673 5677 5680 5683 5686 5688 5690 5692 5695 5698 5700 5703 5704 5706 5706 5707 5707 5708 5710 5712 5714 5715 5716 5717 5717 5718 5719 5719 5720 5721 5722 5722 5722 5721 5720 5720 5721 5721 5722 5722 5722
5568 5572 5575 5577 5581 5584 5588 5592 5596 5601 5605 5609 5612 5617 5621 5625 5628 5632 5636 5640 5644 5648 5652 5656 5660 5663 5667 5671 5674 5677 5680 5683 5685 5687 5690 5692 5695 5698 5700 5702 5703 5704 5705 5705 5706 5707 5709 5711 5713 5714 5715 5715 5716 5717 5718 5719 5720 5720 5721 5721 5720 5719 5719 5720 5720 5721 5721 5720 5720
5572 5575 5578 5581 5584 5588 5592 5595 5599 5603 5608 5612 5616 5619 5623 5627 5630 5634 5638 5642 5646 5650 5654 5658 5661 5665 5669 5672 5675 5678 5681 5683 5685 5687 5690 5693 5696 5697 5699 5700 5701 5702 5703 5704 5705 5707 5709 5711 5712 5712 5713 5714 5715 5716 5717 5717 5718 5719 5719 5719 5719 5719 5719 5719 5719 5719 5719 5719 5719
5576 5578 5581 5584 5588 5592 5595 5599 5603 5607 5611 5615 5619 5622 5626 5629 5633 5637 5641 5645 5648 5652 5656 5660 5663 5667 5670 5673 5676 5679 5681 5683 5686 5688 5691 5693 5695 5696 5697 5698 5700 5701 5702 5703 5704 5706 5708 5709 5710 5711 5712 5713 5713 5714 5715 5716 5717 5717 5717 5717 5717 5717 5717 5718 5718 5718 5718 5718 5718
5580 5582 5585 5588 5592 5595 5599 5603 5607 5611 5615 5618 5622 5626 5629 5632 5636 5640 5644 5647 5652 5655 5658 5662 5665 5668 5671 5674 5677 5679 5681 5684 5687 5689 5692 5693 5694 5695 5696 5697 5699 5700 5702 5703 5704 5705 5707 5708 5709 5710 5710 5711 5712 5713 5714 5715 5715 5715 5716 5715 5716 5716 5716 5716 5716 5717 5717 5717 5717
5584 5587 5589 5592 5596 5599 5603 5607 5611 5615 5618 5621 5625 5629 5632 5635 5639 5643 5647 5651 5655 5658 5661 5664 5667 5670 5673 5676 5678 5680 5682 5685 5687 5689 5691 5692 5693 5694 5695 5696 5697 5699 5701 5702 5703 5705 5706 5707 5708 5708 5709 5710 5712 5713 5713 5713 5714 5714 5714 5714 5714 5714 5714 5715 5715 5715 5715 5715 5715
5588 5591 5593 5597 5600 5603 5607 5611 5614 5617 5621 5623 5627 5631 5635 5639 5643 5647 5651 5655 5658 5661 5664 5667 5669 5672 5675 5677 5679 5681 5683 5686 5687 5689 5691 5692 5693 5694 5695 5696 5697 5699 5700 5702 5703 5704 5705 5706 5707 5707 5708 5710 5711 5711 5712 5712 5712 5712 5712 5712 5713 5713 5713 5713 5714 5714 5714 5714 5714
5592 5595 5597 5601 5604 5607 5610 5613 5617 5620 5623 5627 5631 5635 5639 5644 5648 5652 5655 5658 5661 5665 5667 5670 5672 5673 5675 5678 5680 5682 5684 5686 5687 5689 5690 5691 5692 5693 5695 5696 5697 5699 5700 5702 5703 5704 5705 5705 5706 5707 5707 5708 5709 5710 5710 5710 5711 5711 5711 5712 5712 5712 5712 5712 5712 5713 5713 5712 5712
5596 5599 5602 5605 5607 5611 5614 5617 5620 5623 5627 5631 5636 5640 5644 5648 5652 5655 5658 5662 5665 5667 5669 5671 5672 5674 5675 5677 5680 5682 5684 5686 5688 5689 5690 5691 5692 5693 5695 5696 5697 5699 5700 5702 5702 5703 5704 5705 5706 5707 5707 5707 5707 5707 5708 5709 5710 5710 5710 5710 5710 5711 5711 5711 5711 5711 5711 5711 5711
5600 5603 5606 5609 5612 5615 5618 5621 5625 5628 5632 5636 5640 5644 5648 5652 5655 5659 5662 5665 5666 5667 5668 5670 5672 5674 5676 5677 5681 5683 5685 5687 5689 5690 5691 5692 5693 5694 5695 5696 5697 5699 5700 5702 5703 5704 5705 5705 5705 5705 5705 5705 5706 5707 5707 5708 5709 5709 5709 5709 5709 5709 5710 5710 5710 5710 5710 5710 5710
5605 5607 5611 5613 5617 5620 5623 5626 5630 5633 5637 5640 5643 5646 5650 5655 5659 5662 5664 5665 5665 5666 5668 5670 5672 5675 5677 5680 5682 5685 5687 5688 5690 5691 5692 5692 5693 5694 5696 5697 5698 5699 5700 5702 5702 5703 5703 5702 5702 5702 5703 5704 5705 5706 5707 5707 5707 5707 5708 5708 5708 5708 5708 5709 5709 5709 5709 5709 5709
5610 5612 5616 5619 5622 5625 5628 5631 5634 5637 5640 5642 5645 5649 5654 5658 5660 5661 5662 5663 5665 5667 5669 5672 5674 5677 5679 5681 5683 5686 5687 5689 5690 5691 5692 5692 5693 5694 5696 5697 5698 5699 5700 5700 5700 5700 5700 5700 5701 5702 5702 5703 5705 5705 5706 5706 5706 5706 5707 5707 5707 5707 5707 5708 5708 5708 5708 5708 5707
5615 5618 5621 5624 5627 5630 5632 5635 5638 5641 5643 5645 5648 5652 5655 5657 5658 5659 5662 5664 5666 5668 5671 5673 5675 5677 5680 5682 5684 5686 5687 5688 5690 5691 5692 5692 5693 5694 5695 5696 5697 5697 5697 5698 5698 5698 5699 5699 5700 5701 5702 5703 5704 5704 5705 5705 5705 5705 5705 5706 5706 5707 5707 5707 5707 5707 5707 5707 5706
5621 5623 5626 5628 5632 5634 5637 5639 5642 5644 5647 5649 5651 5653 5654 5656 5658 5661 5663 5665 5667 5668 5671 5673 5676 5678 5680 5682 5684 5685 5686 5687 5688 5690 5691 5691 5692 5693 5694 5695 5695 5696 5696 5696 5697 5697 5698 5699 5700 5701 5702 5702 5703 5703 5704 5704 5704 5704 5705 5705 5706 5706 5707 5707 5707 5706 5706 5705 5704
5627 5628 5631 5633 5635 5638 5640 5643 5646 5649 5650 5651 5652 5654 5656 5658 5660 5662 5663 5665 5667 5669 5671 5674 5677 5679 5681 5682 5683 5684 5685 5686 5687 5688 5689 5690 5691 5692 5693 5694 5694 5695 5695 5696 5696 5697 5698 5699 5700 5700 5701 5702 5702 5702 5703 5703 5703 5704 5704 5705 5705 5706 5706 5705 5705 5705 5704 5703 5703
5631 5633 5635 5637 5640 5642 5644 5647 5649 5650 5652 5653 5655 5657 5658 5660 5662 5664 5665 5667 5669 5671 5673 5676 5678 5680 5681 5682 5683 5684 5685 5685 5686 5687 5688 5690 5691 5692 5692 5693 5694 5695 5695 5696 5696 5697 5697 5698 5699 5700 5700 5701 5701 5702 5702 5702 5703 5704 5704 5704 5705 5705 5704 5704 5703 5703 5702 5702 5701